Погода в Куксе

Чехия     50°24′15″N   15°53′20″E
темп.,
°C
ветер,
м/с
пор.,
м/с
влажн.,
%
обл.,
%
осадки,
мм/ч
давл.,
гПа
погр.,
м
7 марта, вс
вс701:00−3ююз12770 0.0 102926
04:00−3юз25820 0.0 1027151
07:00−3юз26795 0.0 1026250
10:00+1зюз586444 0.0 1024805
13:00+4зюз685537 0.0 10221026
16:00+4з476136 0.0 10201041
19:00−1зсз228032 0.0 102022
22:00−3ссз128817 0.0 102036
8 марта, пн
пн801:00−3юз11879 0.0 102022
04:00−3ююз018656 0.0 101924
07:00−2ю119077 0.1 102174
10:00+1св456390 0.4 1022957
13:00+2св334652 0.4 10221417
16:00+1св335049 0.0 10211098
19:00−2св346863 0.0 102290
22:00−3св226457 0.0 102344
9 марта, вт
вт901:00−3всв116336 0.0 102321
04:00−3юв116250 0.0 102121
07:00−3вюв116375 0.0 102196
10:000ю2350100 0.0 1021627
13:00+2ююз3353100 0.0 10201033
16:000ююз3380100 0.0 1019464
19:00−1ююв1199100 0.6 102048
22:00−2ю1298100 0.7 1020101
10 марта, ср
ср1001:00−3ююв009898 0.8 102122
04:00−3ссз119482 0.0 102186
07:00−3с119060 0.0 102236
10:00+1всв01636 0.0 1023752
13:00+3юз225412 0.0 10231158
16:00+2зюз236541 0.0 1022703
19:00−1ююв128021 0.0 102221
22:00−2ю22832 0.0 102235
11 марта, чт
чт1101:00−2ю388540 0.0 1020291
04:00−2ю399095 0.0 1017348
07:000ю6128697 0.0 1015585
10:00+1ююз81398100 3.7 1012569
13:00+4ююз61389100 4.0 1010596
16:00+6ююз61584100 0.1 1008749
19:00+6юз71791100 1.3 1007858
22:00+6зюз51395100 0.3 1008676